Presure
191 192 170 191 155 176 156 198 132 156 137 205 160 134 142 142 126 106 114 117 119 127 124 149 199 137 134 175 200 165 128 195 145 172 131 422 224 453 448 383 367 355 371 304 281 289 294
210 188 185 161 185 153 173 124 158 135 129 183 151 219 157 145 151 122 113 113 122 128 146 138 137 125 159 179 207 183 135 141 159 159 238 331 231 412 434 372 361 353 357 297 283 298 299
204 204 208 207 198 168 168 146 132 134 212 129 217 144 206 148 146 113 108 185 119 146 140 124 134 136 149 207 193 144 193 153 174 171 135 329 291 457 391 365 350 335 340 291 280 300 284
247 246 168 223 215 172 167 212 213 150 178 190 133 136 229 144 151 112 139 121 130 143 143 136 139 195 152 180 134 140 147 144 178 374 398 192 272 396 363 353 334 378 314 293 271 292 300
227 228 290 266 274 225 193 229 223 222 149 183 203 196 153 142 150 153 135 123 130 131 140 140 157 152 172 178 146 185 142 128 160 377 377 376 313 374 384 350 329 346 313 291 285 274 295
227 254 279 241 225 315 273 243 239 238 203 143 218 138 196 141 213 152 126 121 144 127 128 153 131 185 218 131 180 169 153 134 124 284 137 366 387 344 349 347 308 327 274 263 286 298 295
182 249 294 228 235 237 223 296 349 268 256 254 131 203 135 143 149 142 141 126 121 127 122 136 122 139 165 181 132 180 150 168 416 423 380 376 369 340 361 321 324 291 275 267 283 262 271
263 251 239 263 273 220 269 328 238 221 198 243 222 170 145 138 139 143 139 137 125 133 148 144 143 164 151 127 145 196 173 181 407 410 378 347 350 352 353 324 297 292 292 289 292 288 233
288 278 267 294 271 237 259 338 247 249 236 256 134 248 127 142 131 136 131 128 131 133 146 126 130 168 192 174 134 146 160 421 407 401 358 344 348 345 324 322 291 282 302 265 253 255 254
272 252 262 272 304 206 196 265 352 283 216 156 258 289 126 127 133 136 111 139 122 162 146 148 145 162 136 177 132 298 184 441 400 355 325 323 331 303 310 309 302 284 279 266 259 258 248
266 247 290 286 214 234 360 261 213 227 284 243 242 211 211 126 123 134 127 146 130 225 135 139 147 253 183 167 131 331 361 374 341 321 321 304 322 330 325 310 294 290 285 281 279 254 267
262 263 288 333 373 341 352 321 279 366 278 230 246 260 241 134 128 132 134 133 130 149 129 241 140 140 166 134 258 166 163 355 328 312 321 318 301 306 312 318 306 285 268 265 272 260 260
269 296 311 376 383 404 417 277 222 311 319 254 254 255 240 237 186 127 130 129 198 138 132 159 142 141 166 171 176 156 152 340 316 319 317 320 332 303 320 296 296 303 307 267 255 267 268
237 304 366 382 383 407 420 382 278 226 180 258 233 252 252 244 198 123 138 138 148 136 143 225 141 175 178 152 302 139 162 339 322 311 316 325 313 289 328 288 277 256 260 270 285 272 269
306 337 390 409 395 474 527 572 323 261 356 352 234 229 244 192 128 134 142 160 148 141 213 144 139 165 158 168 157 131 152 328 247 320 320 317 341 286 315 284 276 256 263 262 265 272 274
324 403 408 394 460 499 571 542 371 248 439 323 255 258 159 248 230 140 129 164 145 142 160 148 164 179 168 136 154 139 133 341 331 319 343 313 309 310 319 284 274 267 256 257 253 254 258
366 409 395 445 469 541 530 472 331 324 396 274 180 274 166 239 167 126 142 175 136 147 137 132 222 155 163 128 159 129 139 156 322 323 324 317 323 309 317 327 282 251 269 269 269 277 269
421 393 438 461 507 535 501 450 279 356 303 230 240 264 206 252 144 126 158 148 136 155 146 126 156 137 179 173 156 149 157 133 246 332 341 322 313 301 297 302 325 279 270 259 277 262 267
406 427 455 470 511 526 458 417 236 303 265 277 274 142 259 224 136 201 154 131 137 146 136 171 221 162 179 152 169 119 126 130 317 259 335 333 333 317 310 298 298 331 294 281 273 290 262
406 462 465 491 508 491 393 357 482 256 234 255 255 252 136 132 177 140 229 134 142 144 133 127 187 156 188 141 116 135 128 157 131 130 230 227 327 320 323 317 326 312 325 279 281 278 269
452 470 489 517 523 528 290 410 274 250 250 244 232 236 241 215 138 148 150 136 207 141 132 139 167 184 152 165 167 148 166 162 117 178 117 187 200 303 326 317 314 304 322 302 309 273 305
474 494 507 544 301 372 470 290 271 267 244 230 266 237 204 198 155 145 138 147 152 132 130 155 186 193 215 202 199 102 166 141 134 131 112 188 334 140 340 133 140 329 323 317 333 312 265
497 524 526 530 463 272 283 250 281 254 263 264 244 146 202 126 162 143 137 140 161 133 110 143 222 153 145 205 154 168 112 118 102 166 188 112 130 301 282 114 279 191 188 354 338 332 308
542 519 559 502 269 251 230 300 264 259 263 232 246 151 161 165 232 226 171 142 126 166 158 148 192 170 150 206 189 172 180 116 108 116 194 100 172 149 249 103 277 215 136 199 322 333 332
547 546 501 251 251 247 265 249 246 176 247 183 238 161 188 215 156 213 136 143 127 141 166 171 143 164 129 213 188 173 207 152 178 108 140 122 101 113 131 236 193 247 140 277 214 278 294
561 554 298 249 218 281 263 260 254 237 252 186 227 219 174 223 148 141 145 141 136 148 161 154 216 215 200 203 159 144 141 157 162 118 135 162 118 98 144 244 119 162 139 141 126 162 127
560 331 294 261 263 239 227 267 222 262 216 233 169 211 225 233 137 189 144 136 145 147 194 144 134 175 191 202 174 127 174 167 183 148 151 183 120 108 143 196 131 214 133 197 122 231 182
329 308 298 265 243 230 246 251 250 223 241 189 223 162 139 232 138 213 156 134 165 188 144 143 141 167 198 205 175 153 162 174 183 176 148 175 122 174 170 135 187 137 231 168 165 200 168
309 295 280 262 247 243 235 234 244 184 219 235 238 210 131 143 197 173 144 147 207 164 140 137 139 149 195 204 200 136 193 186 174 160 147 191 129 116 148 148 126 159 246 228 224 242 249
Wind_Speed
100 95 74 83 71 74 58 77 56 59 55 70 58 49 52 47 34 24 21 24 28 34 31 43 57 38 33 59 64 50 50 55 41 49 49 17 36 27 46 76 71 69 73 89 93 79 100
100 87 91 67 81 65 67 40 63 57 49 75 54 85 58 49 51 27 20 21 29 32 46 37 37 36 52 61 45 48 47 47 39 45 28 21 32 17 36 73 66 66 80 95 90 78 90
104 100 103 100 94 72 67 54 50 56 91 47 89 55 61 51 46 22 18 56 27 46 39 30 29 37 41 41 45 27 57 34 49 49 42 21 22 31 51 70 62 69 85 89 73 78 97
97 92 75 109 108 73 76 97 94 52 68 69 45 47 98 46 49 21 34 27 31 40 37 41 36 62 32 50 36 37 31 35 52 16 28 27 18 30 56 66 59 61 89 92 94 68 89
85 79 69 77 80 107 86 107 102 100 49 65 75 75 52 45 45 44 31 25 31 33 33 43 45 43 40 51 28 51 38 37 45 26 30 32 21 34 53 65 61 70 82 83 85 89 80
70 72 66 78 83 67 75 104 107 105 81 44 87 44 69 40 63 40 25 26 33 32 30 40 24 54 52 35 50 48 33 35 33 20 35 26 49 52 56 66 76 83 81 79 66 60 72
83 72 59 78 82 79 81 67 57 83 87 90 35 70 34 42 38 31 28 25 25 32 18 39 20 32 45 46 35 49 35 47 19 27 32 39 52 59 57 65 77 91 90 82 68 68 60
78 71 71 71 62 81 68 60 64 73 59 67 64 35 38 32 28 28 26 24 27 30 33 43 38 47 37 33 29 30 40 46 18 26 47 37 53 57 50 72 79 86 93 73 63 54 51
91 84 71 68 62 71 63 59 77 74 36 74 32 70 28 38 23 23 20 24 25 31 28 10 20 34 33 48 29 26 44 5 18 44 43 40 43 43 55 71 79 78 65 73 70 73 66
91 85 81 80 81 57 57 57 59 57 54 30 73 46 29 22 21 24 21 28 27 28 33 39 36 27 23 39 30 34 43 16 43 49 42 41 41 56 61 69 75 77 78 71 71 77 80
92 82 97 90 62 63 74 55 54 67 56 61 61 41 48 22 19 23 22 30 27 42 32 27 30 53 31 35 31 9 26 51 47 40 42 36 42 41 48 67 76 74 67 72 72 72 69
95 90 94 105 78 76 70 73 55 72 46 64 64 48 54 24 20 23 26 22 30 20 16 44 27 22 38 18 17 43 25 46 39 34 30 40 43 44 46 61 75 74 72 64 73 78 80
98 107 106 80 76 73 69 47 49 58 53 69 64 48 52 36 27 25 25 25 36 25 22 31 27 20 17 34 38 35 37 40 26 30 31 34 39 47 50 60 58 57 65 80 73 76 81
81 114 100 86 73 73 69 64 47 57 24 59 52 47 43 38 41 24 23 24 22 28 35 33 26 28 21 29 9 21 36 26 20 12 26 34 37 41 38 59 63 46 52 58 72 76 74
116 122 90 81 79 74 61 34 32 53 50 49 59 45 48 39 25 23 20 27 18 25 26 27 21 17 30 26 27 13 39 11 7 14 21 24 21 40 46 67 61 52 62 64 64 69 73
120 90 83 86 75 64 31 11 35 59 57 63 64 54 36 38 32 26 27 27 19 23 18 17 17 13 26 6 25 18 18 10 9 11 19 17 25 35 42 65 65 68 58 61 60 60 66
121 85 85 80 67 37 10 39 38 54 64 64 50 51 37 45 28 26 23 18 20 19 18 3 24 13 27 14 27 12 21 37 6 9 12 14 23 33 39 54 80 43 67 68 69 74 68
86 89 81 68 49 20 29 45 50 32 62 52 54 56 41 42 25 27 23 19 20 11 21 10 23 16 16 17 24 21 29 15 13 13 13 19 25 34 42 51 64 76 65 45 71 59 64
89 86 69 60 38 12 44 44 15 63 60 67 62 34 51 38 26 22 25 19 20 20 13 19 12 23 2 25 25 10 4 7 8 9 14 13 17 22 31 41 54 64 81 75 65 70 55
90 69 60 51 26 12 40 54 47 56 41 57 55 50 28 29 30 26 20 20 21 21 9 9 13 23 3 19 8 15 3 26 15 13 6 12 11 14 18 26 35 48 58 71 77 78 65
80 62 50 40 18 11 36 57 69 55 55 53 46 46 46 46 29 24 23 19 11 21 10 15 18 15 24 18 6 18 19 24 4 19 5 17 15 5 11 17 22 28 44 62 78 49 83
67 56 39 33 40 48 49 76 71 66 54 42 61 50 40 26 29 26 22 16 14 16 10 18 11 10 13 9 9 11 19 16 16 13 10 10 8 25 5 19 31 17 25 31 40 68 53
64 36 31 10 26 32 61 38 78 60 63 67 52 35 35 26 30 25 22 20 13 13 17 19 6 18 22 10 31 9 28 24 12 19 27 11 22 17 4 14 13 27 19 22 26 33 38
46 29 27 17 47 56 25 81 65 58 68 46 58 34 36 28 33 28 23 22 21 16 14 17 5 11 12 13 7 9 14 30 24 18 22 17 20 32 39 21 47 23 16 36 23 16 21
37 28 9 26 30 32 60 35 39 37 47 31 54 29 18 32 32 28 23 24 23 18 15 10 19 13 16 17 9 10 23 26 22 30 31 18 19 26 15 41 28 36 27 39 19 50 43
30 19 62 33 27 76 67 65 65 47 60 35 49 44 24 35 31 27 27 25 21 20 17 18 2 4 7 12 27 23 28 33 23 21 32 16 37 24 41 38 12 22 42 18 29 26 32
20 81 66 44 56 45 26 71 50 64 43 52 35 40 37 37 28 26 29 25 22 18 10 21 18 11 7 11 12 15 16 22 18 29 31 21 23 24 48 27 35 34 47 34 32 36 27
77 78 75 56 53 48 45 60 60 36 55 24 40 22 31 34 27 25 28 23 19 13 24 24 21 12 9 11 15 17 20 18 19 21 39 31 24 18 22 42 38 52 47 39 41 36 31
80 75 68 56 51 50 45 45 63 32 46 45 42 27 28 25 29 24 28 24 14 17 24 21 21 22 10 10 14 23 22 24 21 20 31 28 28 4 36 30 28 36 55 56 52 52 53
Wind_Direction
287 285 280 285 274 284 269 285 263 267 261 284 264 268 267 267 265 265 280 284 293 294 281 298 302 292 298 295 307 292 273 297 279 313 275 191 268 217 201 196 198 188 185 190 202 205 197
280 277 282 265 278 260 265 275 276 261 266 282 267 290 266 268 269 269 278 283 291 290 295 300 290 293 301 302 296 301 271 272 312 306 260 236 264 191 185 193 193 184 180 188 202 200 199
282 278 278 279 276 265 261 258 275 266 281 268 283 265 281 267 269 266 270 283 289 290 294 292 306 317 309 305 305 290 310 294 315 315 285 216 234 179 188 189 184 181 177 190 195 205 201
286 282 266 271 272 266 269 272 271 275 271 271 267 268 283 270 269 265 275 285 289 291 298 293 302 308 310 303 273 277 296 302 319 209 169 278 247 185 188 187 175 179 178 185 200 200 202
285 290 291 279 274 267 264 267 270 269 271 263 272 274 269 271 271 271 276 281 287 291 297 290 300 300 312 305 280 306 283 294 313 188 177 167 197 145 185 183 168 172 179 189 201 207 200
292 297 302 273 275 283 262 267 268 267 264 269 270 267 272 272 276 271 271 278 290 290 293 296 300 307 313 281 309 312 327 298 293 230 300 177 156 167 179 177 167 164 178 194 202 195 202
287 306 321 266 270 275 271 279 276 258 259 264 265 264 270 269 272 269 278 274 278 289 291 302 283 323 309 304 289 314 325 339 169 161 176 161 162 174 177 162 169 177 189 198 196 199 201
313 308 299 287 283 275 279 283 270 274 261 252 257 259 263 265 267 270 275 284 283 289 291 295 301 306 315 278 298 335 341 340 138 173 152 152 159 174 169 164 175 184 191 189 169 180 203
329 320 308 314 281 279 273 282 263 256 265 250 243 257 256 264 262 269 267 278 282 286 290 275 337 315 314 312 292 327 344 144 144 141 139 144 160 166 168 172 176 184 177 192 200 190 194
328 316 314 314 316 275 267 270 276 265 264 235 243 252 246 238 259 271 258 278 279 288 284 291 308 322 280 316 293 343 345 107 135 125 130 145 153 169 168 170 180 187 191 196 197 195 202
321 313 322 317 272 268 283 279 271 267 257 243 253 228 239 231 232 262 266 276 273 286 284 305 296 333 312 316 290 85 96 118 124 132 142 160 160 165 172 175 179 182 180 181 182 200 190
318 314 317 317 293 292 279 277 276 263 253 248 239 218 237 226 234 252 267 261 269 282 293 307 290 326 317 282 325 343 360 120 123 135 155 165 165 169 170 176 179 186 190 191 194 204 202
321 323 320 307 299 292 282 252 266 251 246 220 226 216 237 226 224 236 255 256 277 273 292 290 315 329 313 319 335 357 5 130 144 153 164 165 172 176 170 177 175 182 186 195 204 206 205
313 323 317 309 301 294 284 266 220 236 229 230 235 221 212 211 247 227 241 259 267 274 279 312 318 303 314 350 108 9 6 141 155 161 177 175 175 171 173 179 182 194 194 198 200 202 210
327 325 315 313 307 305 302 284 226 203 222 182 225 221 211 233 212 223 244 247 248 267 297 297 324 334 307 330 343 351 4 125 128 183 174 165 165 179 173 179 183 193 193 203 208 208 210
329 322 319 315 313 312 299 231 189 232 219 175 206 184 210 188 199 222 233 244 246 265 268 292 305 303 301 32 330 17 18 150 116 112 181 184 175 179 177 185 191 196 211 210 216 218 217
328 324 321 321 316 312 217 144 190 205 181 191 202 176 201 201 224 221 229 233 251 260 285 335 327 321 303 312 332 357 19 360 130 146 142 156 175 182 185 184 193 224 211 213 215 212 214
328 325 327 320 324 299 169 165 177 216 180 204 183 170 187 173 188 224 225 216 253 243 271 210 294 326 310 312 330 4 354 34 4 140 154 175 183 188 194 195 198 207 221 238 218 231 227
329 329 325 322 320 258 167 175 182 173 176 172 159 218 170 169 197 233 214 236 251 254 284 287 331 283 268 306 316 292 24 45 113 77 149 166 182 201 204 206 208 211 214 220 229 220 242
329 327 325 324 316 229 164 167 168 186 199 188 186 185 197 208 191 203 180 230 239 255 285 314 268 286 356 272 316 302 66 351 16 4 82 69 179 196 203 212 212 217 220 225 228 231 240
331 327 326 324 312 227 185 162 174 188 192 197 202 168 173 207 213 200 192 227 201 254 279 293 249 285 301 301 333 319 329 329 314 5 24 28 61 161 210 219 223 228 223 231 229 246 229
330 327 325 326 168 148 172 158 168 170 194 193 156 180 173 192 196 195 211 210 213 259 286 277 234 307 23 57 34 295 320 336 315 340 305 27 34 9 243 30 16 232 230 233 232 234 253
331 324 327 297 157 142 151 166 155 182 166 156 184 212 170 228 183 195 213 216 196 254 228 286 4 262 303 24 301 336 261 280 279 4 16 297 343 48 320 325 1 352 11 232 240 241 248
333 329 326 198 168 161 147 147 172 176 164 192 166 208 211 217 166 166 190 215 252 217 254 260 216 274 276 7 348 305 354 256 264 284 23 298 355 337 41 317 59 31 332 9 36 309 289
333 332 152 174 177 172 150 171 177 180 186 176 172 189 177 179 193 174 216 211 252 240 230 224 268 296 322 9 321 250 16 295 350 262 316 270 307 313 352 28 7 28 350 42 13 45 37
328 329 167 198 162 150 160 163 170 186 158 174 166 198 201 172 201 205 197 216 228 220 248 233 228 11 353 5 241 282 302 279 292 291 313 315 268 299 317 35 2 336 347 322 342 322 343
329 156 174 187 166 175 170 160 178 155 177 167 193 180 176 168 212 189 203 223 215 230 229 252 275 262 304 351 333 314 304 304 337 287 287 352 268 283 312 359 334 10 322 2 335 8 319
160 163 161 168 179 179 172 175 167 197 168 173 192 194 207 169 211 187 208 232 208 225 242 252 267 269 315 343 307 326 317 322 337 310 280 329 287 348 344 317 5 317 8 323 319 355 332
164 166 168 173 185 186 166 193 170 169 193 172 176 205 221 214 195 212 220 227 205 245 248 264 273 268 295 324 335 293 338 336 326 280 281 346 325 274 300 301 342 330 10 358 355 358 358